Time,TemperatureF,DewpointF,PressureIn,WindDirection,WindDirectionDegrees,WindSpeedMPH,WindSpeedGustMPH,Humidity,HourlyPrecipIn,Conditions,Clouds,dailyrainin,SoftwareType,DateUTC
2013-03-20 00:03:00,37.0,13.0,30.19,WSW,248,0.0,3.0,36,0.00,,,0.02,,2013-03-20 04:03:00,
2013-03-20 00:12:00,37.0,13.0,30.19,WSW,248,0.0,3.0,36,0.00,,,0.02,,2013-03-20 04:12:00,
2013-03-20 00:23:00,37.0,13.0,30.19,NNE,30,1.0,5.0,37,0.00,,,0.02,,2013-03-20 04:23:00,
2013-03-20 00:32:00,37.0,13.0,30.19,North,352,1.0,5.0,37,0.00,,,0.02,,2013-03-20 04:32:00,
2013-03-20 00:43:00,37.0,13.0,30.19,North,352,1.0,5.0,37,0.00,,,0.02,,2013-03-20 04:43:00,
2013-03-20 00:52:00,36.0,12.0,30.19,North,358,0.0,6.0,37,0.00,,,0.02,,2013-03-20 04:52:00,
2013-03-20 01:03:00,36.0,13.0,30.19,NW,309,1.0,6.0,38,0.00,,,0.02,,2013-03-20 05:03:00,
2013-03-20 01:13:00,36.0,13.0,30.19,NNW,334,3.0,5.0,39,0.00,,,0.02,,2013-03-20 05:13:00,
2013-03-20 01:23:00,36.0,13.0,30.19,NNW,334,3.0,5.0,39,0.00,,,0.02,,2013-03-20 05:23:00,
2013-03-20 01:32:00,36.0,12.0,30.18,North,1,0.0,4.0,37,0.00,,,0.02,,2013-03-20 05:32:00,
2013-03-20 01:42:00,36.0,12.0,30.18,North,1,0.0,4.0,37,0.00,,,0.02,,2013-03-20 05:42:00,
2013-03-20 01:52:00,36.0,11.0,30.18,North,11,1.0,3.0,35,0.00,,,0.02,,2013-03-20 05:52:00,
2013-03-20 02:03:00,36.0,13.0,30.17,East,94,1.0,3.0,39,0.00,,,0.02,,2013-03-20 06:03:00,
2013-03-20 02:13:00,36.0,13.0,30.17,East,94,1.0,3.0,39,0.00,,,0.02,,2013-03-20 06:13:00,
2013-03-20 02:22:00,36.0,13.0,30.17,East,79,0.0,6.0,39,0.00,,,0.02,,2013-03-20 06:22:00,
2013-03-20 02:32:00,35.0,13.0,30.17,ENE,70,0.0,2.0,39,0.00,,,0.02,,2013-03-20 06:32:00,
2013-03-20 02:43:00,35.0,13.0,30.17,ENE,70,0.0,2.0,39,0.00,,,0.02,,2013-03-20 06:43:00,
2013-03-20 02:52:00,35.0,13.0,30.16,ENE,72,0.0,3.0,40,0.00,,,0.02,,2013-03-20 06:52:00,
2013-03-20 03:02:00,35.0,12.0,30.17,WNW,288,1.0,2.0,38,0.00,,,0.02,,2013-03-20 07:02:00,
2013-03-20 03:12:00,35.0,12.0,30.17,WNW,288,1.0,2.0,38,0.00,,,0.02,,2013-03-20 07:12:00,
2013-03-20 03:22:00,35.0,13.0,30.16,WNW,288,0.0,1.0,39,0.00,,,0.02,,2013-03-20 07:22:00,
2013-03-20 03:32:00,35.0,11.0,30.17,ESE,113,0.0,4.0,37,0.00,,,0.02,,2013-03-20 07:32:00,
2013-03-20 03:42:00,35.0,11.0,30.17,ESE,113,0.0,4.0,37,0.00,,,0.02,,2013-03-20 07:42:00,
2013-03-20 03:52:00,35.0,10.0,30.17,North,1,2.0,5.0,35,0.00,,,0.02,,2013-03-20 07:52:00,
2013-03-20 04:02:00,35.0,12.0,30.17,West,266,2.0,4.0,38,0.00,,,0.02,,2013-03-20 08:02:00,
2013-03-20 04:13:00,35.0,12.0,30.17,West,266,2.0,4.0,38,0.00,,,0.02,,2013-03-20 08:13:00,
2013-03-20 04:22:00,34.0,9.0,30.16,WNW,302,2.0,10.0,35,0.00,,,0.02,,2013-03-20 08:22:00,
2013-03-20 04:32:00,34.0,10.0,30.16,NW,318,2.0,5.0,36,0.00,,,0.02,,2013-03-20 08:32:00,
2013-03-20 04:42:00,34.0,10.0,30.16,NW,318,2.0,5.0,36,0.00,,,0.02,,2013-03-20 08:42:00,
2013-03-20 04:52:00,33.0,10.0,30.15,NW,319,6.0,9.0,37,0.00,,,0.02,,2013-03-20 08:52:00,
2013-03-20 05:02:00,33.0,8.0,30.15,North,354,0.0,5.0,34,0.00,,,0.02,,2013-03-20 09:02:00,
2013-03-20 05:12:00,33.0,8.0,30.15,North,354,0.0,5.0,34,0.00,,,0.02,,2013-03-20 09:12:00,
2013-03-20 05:22:00,33.0,10.0,30.15,West,261,0.0,3.0,37,0.00,,,0.02,,2013-03-20 09:22:00,
2013-03-20 05:33:00,32.0,10.0,30.15,SSE,159,0.0,2.0,39,0.00,,,0.01,,2013-03-20 09:33:00,
2013-03-20 05:43:00,32.0,10.0,30.15,SSE,159,0.0,2.0,39,0.00,,,0.01,,2013-03-20 09:43:00,
2013-03-20 05:52:00,32.0,10.0,30.15,SSE,159,0.0,0.0,39,0.00,,,0.01,,2013-03-20 09:52:00,
2013-03-20 06:03:00,32.0,9.0,30.15,SSE,159,0.0,0.0,38,0.00,,,0.01,,2013-03-20 10:03:00,
2013-03-20 06:13:00,32.0,9.0,30.15,SSE,159,0.0,0.0,38,0.00,,,0.01,,2013-03-20 10:13:00,
2013-03-20 06:23:00,31.0,8.0,30.14,SSE,159,0.0,0.0,37,0.00,,,0.01,,2013-03-20 10:23:00,
2013-03-20 06:33:00,31.0,9.0,30.16,SSE,159,0.0,2.0,39,0.00,,,0.00,,2013-03-20 10:33:00,
2013-03-20 06:43:00,31.0,9.0,30.16,SSE,159,0.0,2.0,39,0.00,,,0.00,,2013-03-20 10:43:00,
2013-03-20 06:52:00,31.0,9.0,30.16,SSE,159,0.0,0.0,39,0.00,,,0.00,,2013-03-20 10:52:00,
2013-03-20 07:03:00,30.0,9.0,30.16,SSE,159,0.0,0.0,40,0.00,,,0.00,,2013-03-20 11:03:00,
2013-03-20 07:12:00,30.0,9.0,30.16,SSE,159,0.0,0.0,40,0.00,,,0.00,,2013-03-20 11:12:00,
2013-03-20 07:22:00,30.0,9.0,30.16,SSE,159,0.0,0.0,41,0.00,,,0.00,,2013-03-20 11:22:00,
2013-03-20 07:32:00,30.0,9.0,30.16,SSE,159,0.0,0.0,41,0.00,,,0.00,,2013-03-20 11:32:00,
2013-03-20 07:42:00,30.0,9.0,30.16,SSE,159,0.0,0.0,41,0.00,,,0.00,,2013-03-20 11:42:00,
2013-03-20 07:52:00,30.0,9.0,30.18,SSE,159,0.0,2.0,41,0.00,,,0.00,,2013-03-20 11:52:00,
2013-03-20 08:02:00,30.0,9.0,30.18,WSW,238,1.0,3.0,41,0.00,,,0.00,,2013-03-20 12:02:00,
2013-03-20 08:13:00,30.0,9.0,30.18,WSW,238,1.0,3.0,41,0.00,,,0.00,,2013-03-20 12:13:00,
2013-03-20 08:22:00,30.0,9.0,30.19,NNW,335,0.0,4.0,40,0.00,,,0.00,,2013-03-20 12:22:00,
2013-03-20 08:32:00,30.0,8.0,30.19,North,360,0.0,3.0,39,0.00,,,0.00,,2013-03-20 12:32:00,
2013-03-20 08:42:00,30.0,8.0,30.19,North,360,0.0,3.0,39,0.00,,,0.00,,2013-03-20 12:42:00,
2013-03-20 08:52:00,30.0,9.0,30.19,North,360,0.0,2.0,41,0.00,,,0.00,,2013-03-20 12:52:00,
2013-03-20 09:03:00,31.0,9.0,30.19,North,352,0.0,3.0,39,0.00,,,0.00,,2013-03-20 13:03:00,
2013-03-20 09:12:00,31.0,9.0,30.19,North,352,0.0,3.0,39,0.00,,,0.00,,2013-03-20 13:12:00,
2013-03-20 09:22:00,31.0,13.0,30.19,North,358,0.0,1.0,46,0.00,,,0.00,,2013-03-20 13:22:00,
2013-03-20 09:32:00,32.0,13.0,30.19,ESE,109,0.0,3.0,44,0.00,,,0.00,,2013-03-20 13:32:00,
2013-03-20 09:42:00,32.0,13.0,30.19,ESE,109,0.0,3.0,44,0.00,,,0.00,,2013-03-20 13:42:00,
2013-03-20 09:52:00,33.0,15.0,30.19,ESE,109,0.0,1.0,46,0.00,,,0.00,,2013-03-20 13:52:00,
2013-03-20 10:03:00,33.0,15.0,30.20,ESE,109,0.0,1.0,48,0.00,,,0.00,,2013-03-20 14:03:00,
2013-03-20 10:12:00,33.0,15.0,30.20,ESE,109,0.0,1.0,48,0.00,,,0.00,,2013-03-20 14:12:00,
2013-03-20 10:23:00,34.0,15.0,30.19,ESE,109,0.0,1.0,45,0.00,,,0.00,,2013-03-20 14:23:00,
2013-03-20 10:34:00,35.0,15.0,30.20,ESE,109,0.0,2.0,44,0.00,,,0.00,,2013-03-20 14:34:00,
2013-03-20 10:42:00,35.0,15.0,30.20,ESE,109,0.0,2.0,44,0.00,,,0.00,,2013-03-20 14:42:00,
2013-03-20 10:52:00,36.0,15.0,30.20,ENE,71,1.0,2.0,41,0.00,,,0.00,,2013-03-20 14:52:00,
2013-03-20 11:03:00,36.0,16.0,30.20,ENE,61,0.0,2.0,44,0.00,,,0.00,,2013-03-20 15:03:00,
2013-03-20 11:13:00,37.0,14.0,30.20,ENE,61,0.0,1.0,39,0.00,,,0.00,,2013-03-20 15:13:00,
2013-03-20 11:22:00,37.0,14.0,30.20,ENE,61,0.0,1.0,39,0.00,,,0.00,,2013-03-20 15:22:00,
2013-03-20 11:33:00,37.0,13.0,30.20,SE,127,0.0,3.0,37,0.00,,,0.00,,2013-03-20 15:33:00,
2013-03-20 11:43:00,37.0,13.0,30.20,SE,127,0.0,3.0,37,0.00,,,0.00,,2013-03-20 15:43:00,
2013-03-20 11:52:00,39.0,14.0,30.19,ESE,121,0.0,4.0,36,0.00,,,0.00,,2013-03-20 15:52:00,
2013-03-20 12:03:00,39.0,15.0,30.19,West,265,2.0,7.0,37,0.00,,,0.00,,2013-03-20 16:03:00,
2013-03-20 12:13:00,39.0,15.0,30.19,West,265,2.0,7.0,37,0.00,,,0.00,,2013-03-20 16:13:00,
2013-03-20 12:23:00,40.0,12.0,30.18,WSW,237,3.0,7.0,31,0.00,,,0.00,,2013-03-20 16:23:00,
2013-03-20 12:33:00,41.0,14.0,30.17,West,261,4.0,9.0,33,0.00,,,0.00,,2013-03-20 16:33:00,
2013-03-20 12:43:00,41.0,14.0,30.17,West,261,4.0,9.0,33,0.00,,,0.00,,2013-03-20 16:43:00,
2013-03-20 12:52:00,42.0,15.0,30.16,NNW,348,3.0,11.0,33,0.00,,,0.00,,2013-03-20 16:52:00,
2013-03-20 13:03:00,42.0,15.0,30.15,West,279,2.0,8.0,33,0.00,,,0.00,,2013-03-20 17:03:00,
2013-03-20 13:12:00,42.0,15.0,30.15,West,279,2.0,8.0,33,0.00,,,0.00,,2013-03-20 17:12:00,
2013-03-20 13:22:00,43.0,15.0,30.14,NNE,13,4.0,11.0,32,0.00,,,0.00,,2013-03-20 17:22:00,
2013-03-20 13:32:00,44.0,12.0,30.14,South,177,5.0,11.0,27,0.00,,,0.00,,2013-03-20 17:32:00,
2013-03-20 13:42:00,44.0,12.0,30.14,South,177,5.0,11.0,27,0.00,,,0.00,,2013-03-20 17:42:00,
2013-03-20 13:52:00,44.0,15.0,30.13,WNW,286,2.0,8.0,31,0.00,,,0.00,,2013-03-20 17:52:00,
2013-03-20 14:02:00,46.0,16.0,30.11,West,273,4.0,11.0,30,0.00,,,0.00,,2013-03-20 18:02:00,
2013-03-20 14:12:00,46.0,16.0,30.11,West,273,4.0,11.0,30,0.00,,,0.00,,2013-03-20 18:12:00,
2013-03-20 14:22:00,47.0,16.0,30.10,WNW,282,2.0,12.0,29,0.00,,,0.00,,2013-03-20 18:22:00,
2013-03-20 14:34:00,48.0,14.0,30.08,WSW,238,6.0,12.0,25,0.00,,,0.00,,2013-03-20 18:34:00,
2013-03-20 14:43:00,48.0,14.0,30.08,WSW,238,6.0,12.0,25,0.00,,,0.00,,2013-03-20 18:43:00,
2013-03-20 15:02:00,48.0,15.0,30.05,WNW,295,5.0,17.0,26,0.00,,,0.00,,2013-03-20 19:02:00,
2013-03-20 15:12:00,48.0,15.0,30.05,WNW,295,5.0,17.0,26,0.00,,,0.00,,2013-03-20 19:12:00,
2013-03-20 15:22:00,48.0,12.0,30.03,NE,34,7.0,17.0,23,0.00,,,0.00,,2013-03-20 19:22:00,
2013-03-20 15:32:00,48.0,12.0,30.02,NNE,12,5.0,17.0,23,0.00,,,0.00,,2013-03-20 19:32:00,
2013-03-20 15:42:00,48.0,12.0,30.02,NNE,12,5.0,17.0,23,0.00,,,0.00,,2013-03-20 19:42:00,
2013-03-20 15:52:00,48.0,14.0,30.01,NW,310,6.0,16.0,25,0.00,,,0.00,,2013-03-20 19:52:00,
2013-03-20 16:02:00,49.0,13.0,30.01,North,2,5.0,11.0,23,0.00,,,0.00,,2013-03-20 20:02:00,
2013-03-20 16:13:00,49.0,13.0,30.01,North,2,5.0,11.0,23,0.00,,,0.00,,2013-03-20 20:13:00,
2013-03-20 16:22:00,49.0,15.0,30.01,NNE,13,5.0,21.0,25,0.00,,,0.00,,2013-03-20 20:22:00,
2013-03-20 16:32:00,49.0,16.0,30.00,NNE,16,8.0,19.0,27,0.00,,,0.00,,2013-03-20 20:32:00,
2013-03-20 16:42:00,49.0,16.0,30.00,NNE,16,8.0,19.0,27,0.00,,,0.00,,2013-03-20 20:42:00,
2013-03-20 16:52:00,49.0,16.0,30.00,NNE,16,8.0,19.0,27,0.00,,,0.00,,2013-03-20 20:52:00,
2013-03-20 17:02:00,47.0,12.0,30.00,NNW,346,8.0,21.0,24,0.00,,,0.00,,2013-03-20 21:02:00,
2013-03-20 17:12:00,47.0,12.0,30.00,NNW,346,8.0,21.0,24,0.00,,,0.00,,2013-03-20 21:12:00,
2013-03-20 17:23:00,46.0,14.0,29.99,WNW,298,4.0,17.0,27,0.00,,,0.00,,2013-03-20 21:23:00,
2013-03-20 17:33:00,47.0,16.0,29.99,South,170,2.0,14.0,29,0.00,,,0.00,,2013-03-20 21:33:00,
2013-03-20 17:42:00,47.0,16.0,29.99,South,170,2.0,14.0,29,0.00,,,0.00,,2013-03-20 21:42:00,
2013-03-20 17:52:00,46.0,13.0,29.98,NNE,13,6.0,12.0,26,0.00,,,0.00,,2013-03-20 21:52:00,
2013-03-20 18:03:00,47.0,16.0,29.98,NNW,345,5.0,18.0,28,0.00,,,0.00,,2013-03-20 22:03:00,
2013-03-20 18:13:00,47.0,16.0,29.98,NNW,345,5.0,18.0,28,0.00,,,0.00,,2013-03-20 22:13:00,
2013-03-20 18:23:00,46.0,14.0,29.98,NE,51,4.0,11.0,27,0.00,,,0.00,,2013-03-20 22:23:00,
2013-03-20 18:33:00,47.0,15.0,29.98,NNW,344,6.0,14.0,27,0.00,,,0.00,,2013-03-20 22:33:00,
2013-03-20 18:42:00,47.0,15.0,29.98,NNW,344,6.0,14.0,27,0.00,,,0.00,,2013-03-20 22:42:00,
2013-03-20 18:52:00,45.0,15.0,29.98,North,359,3.0,14.0,30,0.00,,,0.00,,2013-03-20 22:52:00,
2013-03-20 19:03:00,44.0,13.0,29.98,NNW,345,7.0,18.0,28,0.00,,,0.00,,2013-03-20 23:03:00,
2013-03-20 19:12:00,44.0,13.0,29.98,NNW,345,7.0,18.0,28,0.00,,,0.00,,2013-03-20 23:12:00,
2013-03-20 19:23:00,42.0,14.0,29.98,WSW,250,3.0,20.0,32,0.00,,,0.00,,2013-03-20 23:23:00,
2013-03-20 19:32:00,42.0,14.0,29.98,SSW,205,2.0,16.0,32,0.00,,,0.00,,2013-03-20 23:32:00,
2013-03-20 19:43:00,42.0,14.0,29.98,SSW,205,2.0,16.0,32,0.00,,,0.00,,2013-03-20 23:43:00,
2013-03-20 19:52:00,41.0,15.0,29.98,NW,307,2.0,12.0,35,0.00,,,0.00,,2013-03-20 23:52:00,
2013-03-20 20:03:00,41.0,14.0,29.97,NW,311,3.0,17.0,33,0.00,,,0.00,,2013-03-21 00:03:00,
2013-03-20 20:13:00,41.0,14.0,29.97,NW,311,3.0,17.0,33,0.00,,,0.00,,2013-03-21 00:13:00,
2013-03-20 20:23:00,41.0,16.0,29.98,NNW,342,7.0,11.0,36,0.00,,,0.00,,2013-03-21 00:23:00,
2013-03-20 20:33:00,40.0,16.0,29.97,North,359,1.0,11.0,37,0.00,,,0.00,,2013-03-21 00:33:00,
2013-03-20 20:42:00,40.0,16.0,29.97,North,359,1.0,11.0,37,0.00,,,0.00,,2013-03-21 00:42:00,
2013-03-20 20:52:00,40.0,15.0,29.97,SE,134,6.0,18.0,36,0.00,,,0.00,,2013-03-21 00:52:00,
2013-03-20 21:02:00,39.0,16.0,29.97,NW,323,8.0,23.0,38,0.00,,,0.00,,2013-03-21 01:02:00,
2013-03-20 21:12:00,39.0,16.0,29.97,NW,323,8.0,23.0,38,0.00,,,0.00,,2013-03-21 01:12:00,
2013-03-20 21:22:00,39.0,20.0,29.99,NNW,330,14.0,22.0,47,0.00,,,0.00,,2013-03-21 01:22:00,
2013-03-20 21:33:00,37.0,24.0,30.00,WSW,257,4.0,16.0,58,0.00,,,0.00,,2013-03-21 01:33:00,
2013-03-20 21:42:00,37.0,24.0,30.00,WSW,257,4.0,16.0,58,0.00,,,0.00,,2013-03-21 01:42:00,
2013-03-20 21:52:00,36.0,23.0,29.98,SW,233,0.0,13.0,58,0.00,,,0.00,,2013-03-21 01:52:00,
2013-03-20 22:03:00,35.0,23.0,29.98,ESE,115,1.0,6.0,61,0.00,,,0.00,,2013-03-21 02:03:00,
2013-03-20 22:13:00,35.0,23.0,29.98,ESE,115,1.0,6.0,61,0.00,,,0.00,,2013-03-21 02:13:00,
2013-03-20 22:22:00,35.0,23.0,29.99,ESE,115,0.0,2.0,61,0.00,,,0.00,,2013-03-21 02:22:00,
2013-03-20 22:33:00,34.0,27.0,30.00,ENE,69,0.0,10.0,74,0.00,,,0.00,,2013-03-21 02:33:00,
2013-03-20 22:42:00,34.0,27.0,30.00,ENE,69,0.0,10.0,74,0.00,,,0.00,,2013-03-21 02:42:00,
2013-03-20 22:52:00,34.0,27.0,30.00,ENE,69,0.0,10.0,74,0.00,,,0.00,,2013-03-21 02:52:00,
2013-03-20 23:02:00,33.0,28.0,30.00,SSE,162,2.0,12.0,80,0.00,,,0.00,,2013-03-21 03:02:00,
2013-03-20 23:12:00,33.0,28.0,30.00,SSE,162,2.0,12.0,80,0.00,,,0.00,,2013-03-21 03:12:00,
2013-03-20 23:22:00,32.0,28.0,30.01,West,271,6.0,10.0,84,0.00,,,0.00,,2013-03-21 03:22:00,
2013-03-20 23:33:00,31.0,27.0,30.01,SW,215,1.0,7.0,84,0.00,,,0.00,,2013-03-21 03:33:00,
2013-03-20 23:43:00,31.0,27.0,30.01,SW,215,1.0,7.0,84,0.00,,,0.00,,2013-03-21 03:43:00,
2013-03-20 23:53:00,31.0,27.0,30.02,West,278,1.0,12.0,84,0.00,,,0.00,,2013-03-21 03:53:00,